,,Stat6,,Stat2,,Stat8,,Stat9,,Stat10,,Wind1,,Wind1,
time,status,PA1M_AVG,status,PR1M_SUM,status,RH1M_AVG,status,SR1M_AVG,status,TA1M_AVG,status,W1dAve1m,status,W1sAve1m,
2005-04-28, 00:00:00,VALID,917.646,VALID,0,VALID,100,VALID,-0.0339617,VALID,20.8972,VALID,129,VALID,1.08975,
2005-04-28, 00:01:00,VALID,917.641,VALID,0,VALID,100,VALID,-0.0509425,VALID,20.9037,VALID,110,VALID,1.00888,
2005-04-28, 00:02:00,VALID,917.643,VALID,0,VALID,100,VALID,-0.0339617,VALID,20.8964,VALID,121,VALID,0.905523,
2005-04-28, 00:03:00,VALID,917.62,VALID,0,VALID,100,VALID,-0.0679233,VALID,20.9034,VALID,101,VALID,0.884487,
2005-04-28, 00:04:00,VALID,917.619,VALID,0,VALID,100,VALID,-0.0679233,VALID,20.8905,VALID,100,VALID,1.02362,
2005-04-28, 00:05:00,VALID,917.603,VALID,0,VALID,99.9954,VALID,-0.0339617,VALID,20.9061,VALID,105,VALID,1.44754,
2005-04-28, 00:06:00,VALID,917.585,VALID,0,VALID,99.9011,VALID,-0.0849042,VALID,20.9163,VALID,107,VALID,0.941778,
2005-04-28, 00:07:00,VALID,917.572,VALID,0,VALID,99.8222,VALID,-0.0509425,VALID,20.9395,VALID,121,VALID,1.30816,
2005-04-28, 00:08:00,VALID,917.564,VALID,0,VALID,99.7307,VALID,-0.0339617,VALID,20.9454,VALID,107,VALID,0.980273,
2005-04-28, 00:09:00,VALID,917.553,VALID,0,VALID,99.6582,VALID,-0.0679233,VALID,20.9355,VALID,106,VALID,1.18801,
2005-04-28, 00:10:00,VALID,917.543,VALID,0,VALID,99.6671,VALID,-0.0339617,VALID,20.9457,VALID,109,VALID,1.86328,
2005-04-28, 00:11:00,VALID,917.524,VALID,0,VALID,99.5895,VALID,-0.0679233,VALID,20.9621,VALID,107,VALID,1.31734,
2005-04-28, 00:12:00,VALID,917.504,VALID,0,VALID,99.5514,VALID,-0.0849042,VALID,20.9527,VALID,108,VALID,1.41127,
2005-04-28, 00:13:00,VALID,917.475,VALID,0,VALID,99.5743,VALID,-0.101885,VALID,20.9392,VALID,107,VALID,1.27557,
2005-04-28, 00:14:00,VALID,917.451,VALID,0,VALID,99.5883,VALID,-0.0849042,VALID,20.9298,VALID,96,VALID,0.751674,
2005-04-28, 00:15:00,VALID,917.427,VALID,0,VALID,99.5844,VALID,-0.0679233,VALID,20.9328,VALID,108,VALID,1.54851,
2005-04-28, 00:16:00,VALID,917.406,VALID,0,VALID,99.5679,VALID,-0.0679233,VALID,20.9163,VALID,107,VALID,1.26086,
2005-04-28, 00:17:00,VALID,917.394,VALID,0,VALID,99.5425,VALID,-0.0849042,VALID,20.9266,VALID,112,VALID,1.40774,
2005-04-28, 00:18:00,VALID,917.373,VALID,0,VALID,99.5743,VALID,-0.0509425,VALID,20.9131,VALID,103,VALID,1.68314,
2005-04-28, 00:19:00,VALID,917.371,VALID,0,VALID,99.5692,VALID,-0.0849042,VALID,20.9136,VALID,103,VALID,1.53982,
2005-04-28, 00:20:00,VALID,917.36,VALID,0,VALID,99.6022,VALID,-0.0509425,VALID,20.9032,VALID,106,VALID,1.55451,
2005-04-28, 00:21:00,VALID,917.353,VALID,0,VALID,99.6468,VALID,-0.0849042,VALID,20.9072,VALID,104,VALID,1.27121,
2005-04-28, 00:22:00,VALID,917.338,VALID,0,VALID,99.6925,VALID,-0.0169808,VALID,20.9072,VALID,111,VALID,1.65739,
2005-04-28, 00:23:00,VALID,917.327,VALID,0,VALID,99.6862,VALID,-0.0339617,VALID,20.9161,VALID,107,VALID,1.27689,
2005-04-28, 00:24:00,VALID,917.316,VALID,0,VALID,99.6251,VALID,-0.0339617,VALID,20.9328,VALID,113,VALID,1.37388,
2005-04-28, 00:25:00,VALID,917.303,VALID,0,VALID,99.587,VALID,-0.0679233,VALID,20.9328,VALID,115,VALID,1.36772,
2005-04-28, 00:26:00,VALID,917.296,VALID,0,VALID,99.601,VALID,-0.0679233,VALID,20.9325,VALID,111,VALID,1.63663,
2005-04-28, 00:27:00,VALID,917.296,VALID,0,VALID,99.5781,VALID,-0.0679233,VALID,20.9589,VALID,105,VALID,1.46748,
2005-04-28, 00:28:00,VALID,917.295,VALID,0,VALID,99.4128,VALID,-0.0339617,VALID,20.9616,VALID,111,VALID,1.03789,
2005-04-28, 00:29:00,VALID,917.295,VALID,0,VALID,99.4179,VALID,-0.0679233,VALID,20.9583,VALID,113,VALID,1.48223,
2005-04-28, 00:30:00,VALID,917.3,VALID,0,VALID,99.3657,VALID,-0.0679233,VALID,20.9715,VALID,104,VALID,1.59535,
2005-04-28, 00:31:00,VALID,917.298,VALID,0,VALID,99.2856,VALID,-0.0509425,VALID,20.9747,VALID,101,VALID,1.37405,
2005-04-28, 00:32:00,VALID,917.294,VALID,0,VALID,99.1597,VALID,-0.0679233,VALID,20.9879,VALID,104,VALID,1.11115,
2005-04-28, 00:33:00,VALID,917.298,VALID,0,VALID,99.1318,VALID,-0.0509425,VALID,20.9936,VALID,116,VALID,1.40923,
2005-04-28, 00:34:00,VALID,917.294,VALID,0,VALID,99.0059,VALID,-0.0509425,VALID,21.0103,VALID,116,VALID,1.11367,
2005-04-28, 00:35:00,VALID,917.291,VALID,0,VALID,98.9067,VALID,-0.0679233,VALID,21.0165,VALID,120,VALID,0.950462,
2005-04-28, 00:36:00,VALID,917.288,VALID,0,VALID,98.9232,VALID,-0.0509425,VALID,21.02,VALID,107,VALID,1.02907,
2005-04-28, 00:37:00,VALID,917.294,VALID,0,VALID,98.8914,VALID,-0.0849042,VALID,21.0264,VALID,117,VALID,1.61543,
2005-04-28, 00:38:00,VALID,917.28,VALID,0,VALID,98.7973,VALID,-0.0849042,VALID,21.0429,VALID,110,VALID,1.1195,
2005-04-28, 00:39:00,VALID,917.281,VALID,0,VALID,98.7197,VALID,-0.0849042,VALID,21.0552,VALID,125,VALID,1.16751,
2005-04-28, 00:40:00,VALID,917.272,VALID,0,VALID,98.6473,VALID,-0.101885,VALID,21.052,VALID,118,VALID,0.800872,
2005-04-28, 00:41:00,VALID,917.256,VALID,0,VALID,98.5964,VALID,-0.0679233,VALID,21.0587,VALID,125,VALID,0.566964,
2005-04-28, 00:42:00,VALID,917.233,VALID,0,VALID,98.6346,VALID,-0.0679233,VALID,21.0423,VALID,102,VALID,0.865699,
2005-04-28, 00:43:00,VALID,917.217,VALID,0,VALID,98.6155,VALID,-0.0849042,VALID,21.0421,VALID,63,VALID,0.521621,
2005-04-28, 00:44:00,VALID,917.216,VALID,0,VALID,98.5557,VALID,-0.0509425,VALID,21.0197,VALID,35,VALID,0.49707,
2005-04-28, 00:45:00,VALID,917.189,VALID,0,VALID,98.5201,VALID,-0.0679233,VALID,20.9933,VALID,43,VALID,0.61084,
2005-04-28, 00:46:00,VALID,917.188,VALID,0,VALID,98.6231,VALID,-0.0679233,VALID,20.9812,VALID,66,VALID,0.535251,
2005-04-28, 00:47:00,VALID,917.177,VALID,0,VALID,98.6854,VALID,-0.0509425,VALID,20.9651,VALID,81,VALID,0.714334,
2005-04-28, 00:48:00,VALID,917.17,VALID,0,VALID,98.7312,VALID,-0.0679233,VALID,20.9651,VALID,102,VALID,0.410866,
2005-04-28, 00:49:00,VALID,917.182,VALID,0,VALID,98.7414,VALID,-0.0509425,VALID,20.9387,VALID,103,VALID,0.116319,
2005-04-28, 00:50:00,VALID,917.192,VALID,0,VALID,98.7096,VALID,-0.0169808,VALID,20.9357,VALID,103,VALID,0.17934,
2005-04-28, 00:51:00,VALID,917.197,VALID,0,VALID,98.735,VALID,0,VALID,20.9196,VALID,103,VALID,0.0539435,
2005-04-28, 00:52:00,VALID,917.187,VALID,0,VALID,98.8393,VALID,-0.0339617,VALID,20.9193,VALID,103,VALID,0.0325218,
2005-04-28, 00:53:00,VALID,917.199,VALID,0,VALID,98.8253,VALID,0,VALID,20.9201,VALID,103,VALID,0.330487,
2005-04-28, 00:54:00,VALID,917.189,VALID,0,VALID,98.8482,VALID,0,VALID,20.8679,VALID,134,VALID,0.52255,
2005-04-28, 00:55:00,VALID,917.182,VALID,0,VALID,99.0555,VALID,-0.0509425,VALID,20.7933,VALID,254,VALID,0.735305,
2005-04-28, 00:56:00,VALID,917.182,VALID,0,VALID,99.3339,VALID,-0.0169808,VALID,20.719,VALID,254,VALID,0.630859,
2005-04-28, 00:57:00,VALID,917.173,VALID,0,VALID,99.6099,VALID,-0.0169808,VALID,20.6544,VALID,254,VALID,0.7859,
2005-04-28, 00:58:00,VALID,917.16,VALID,0,VALID,99.9311,VALID,-0.0509425,VALID,20.6289,VALID,251,VALID,0.78853,
2005-04-28, 00:59:00,VALID,917.158,VALID,0,VALID,100,VALID,-0.0169808,VALID,20.5936,VALID,247,VALID,0.960742,
2005-04-28, 01:00:00,VALID,917.135,VALID,0,VALID,100,VALID,0,VALID,20.5573,VALID,244,VALID,0.992014,
2005-04-28, 01:01:00,VALID,917.136,VALID,0,VALID,100,VALID,0,VALID,20.525,VALID,244,VALID,0.719658,
2005-04-28, 01:02:00,VALID,917.132,VALID,0,VALID,100,VALID,0,VALID,20.5088,VALID,244,VALID,0.585582,
2005-04-28, 01:03:00,VALID,917.122,VALID,0,VALID,100,VALID,-0.0169808,VALID,20.477,VALID,244,VALID,0.497024,
2005-04-28, 01:04:00,VALID,917.113,VALID,0,VALID,100,VALID,-0.0169808,VALID,20.4609,VALID,244,VALID,0.412348,
2005-04-28, 01:05:00,VALID,917.108,VALID,0,VALID,100,VALID,0.0339617,VALID,20.4671,VALID,244,VALID,0.332812,
2005-04-28, 01:06:00,VALID,917.109,VALID,0,VALID,100,VALID,0.101885,VALID,20.4663,VALID,244,VALID,0.439977,
2005-04-28, 01:07:00,VALID,917.102,VALID,0,VALID,100,VALID,0.101885,VALID,20.4857,VALID,213,VALID,0.383152,
2005-04-28, 01:08:00,VALID,917.094,VALID,0,VALID,100,VALID,0.0679233,VALID,20.4752,VALID,223,VALID,0.470152,
2005-04-28, 01:09:00,VALID,917.099,VALID,0,VALID,100,VALID,0.0849042,VALID,20.4922,VALID,210,VALID,0.44436,
2005-04-28, 01:10:00,VALID,917.094,VALID,0,VALID,100,VALID,0.0679233,VALID,20.4981,VALID,208,VALID,0.494318,
2005-04-28, 01:11:00,VALID,917.09,VALID,0,VALID,100,VALID,0.0849042,VALID,20.4949,VALID,205,VALID,0.347384,
2005-04-28, 01:12:00,VALID,917.098,VALID,0,VALID,100,VALID,0.0679233,VALID,20.4949,VALID,205,VALID,0.301067,
2005-04-28, 01:13:00,VALID,917.102,VALID,0,VALID,100,VALID,0.101885,VALID,20.4984,VALID,205,VALID,0.168056,
2005-04-28, 01:14:00,VALID,917.11,VALID,0,VALID,100,VALID,0.0679233,VALID,20.469,VALID,205,VALID,0.0708576,
2005-04-28, 01:15:00,VALID,917.104,VALID,0,VALID,100,VALID,0.0679233,VALID,20.4596,VALID,202,VALID,0.220274,
2005-04-28, 01:16:00,VALID,917.1,VALID,0,VALID,100,VALID,0.0679233,VALID,20.4526,VALID,196,VALID,0.183949,
2005-04-28, 01:17:00,VALID,917.089,VALID,0,VALID,100,VALID,0.0339617,VALID,20.4499,VALID,184,VALID,0.418945,
2005-04-28, 01:18:00,VALID,917.079,VALID,0,VALID,100,VALID,0.0679233,VALID,20.447,VALID,177,VALID,0.257635,
2005-04-28, 01:19:00,VALID,917.076,VALID,0,VALID,100,VALID,0.0849042,VALID,20.3953,VALID,88,VALID,0.622024,
2005-04-28, 01:20:00,VALID,917.063,VALID,0,VALID,100,VALID,0.0679233,VALID,20.4023,VALID,80,VALID,0.395712,
2005-04-28, 01:21:00,VALID,917.054,VALID,0,VALID,100,VALID,-0.0169808,VALID,20.3998,VALID,80,VALID,0,
2005-04-28, 01:22:00,VALID,917.05,VALID,0,VALID,100,VALID,-0.0169808,VALID,20.3707,VALID,80,VALID,0,
2005-04-28, 01:23:00,VALID,917.032,VALID,0,VALID,100,VALID,-0.0509425,VALID,20.3317,VALID,80,VALID,0.0537997,
2005-04-28, 01:24:00,VALID,917.034,VALID,0,VALID,100,VALID,-0.0509425,VALID,20.2964,VALID,79,VALID,0.324673,
2005-04-28, 01:25:00,VALID,917.013,VALID,0,VALID,100,VALID,-0.0509425,VALID,20.2351,VALID,79,VALID,0.271577,
2005-04-28, 01:26:00,VALID,917.017,VALID,0,VALID,100,VALID,0,VALID,20.1899,VALID,68,VALID,0.419457,
2005-04-28, 01:27:00,VALID,917.016,VALID,0,VALID,100,VALID,-0.0169808,VALID,20.164,VALID,32,VALID,0.826672,
2005-04-28, 01:28:00,VALID,916.991,VALID,0,VALID,100,VALID,0,VALID,20.1514,VALID,21,VALID,0.706577,
2005-04-28, 01:29:00,VALID,916.99,VALID,0,VALID,100,VALID,-0.0339617,VALID,20.1315,VALID,13,VALID,0.606445,
2005-04-28, 01:30:00,VALID,916.982,VALID,0,VALID,100,VALID,0,VALID,20.1476,VALID,14,VALID,0.573331,
2005-04-28, 01:31:00,VALID,916.965,VALID,0,VALID,100,VALID,0,VALID,20.1705,VALID,14,VALID,0.667492,
2005-04-28, 01:32:00,VALID,916.969,VALID,0,VALID,100,VALID,0,VALID,20.1767,VALID,13,VALID,0.740234,
2005-04-28, 01:33:00,VALID,916.968,VALID,0,VALID,100,VALID,-0.0169808,VALID,20.1906,VALID,13,VALID,0.509266,
2005-04-28, 01:34:00,VALID,916.977,VALID,0,VALID,100,VALID,-0.0169808,VALID,20.1712,VALID,13,VALID,0.359557,
2005-04-28, 01:35:00,VALID,916.974,VALID,0,VALID,100,VALID,-0.0169808,VALID,20.1645,VALID,13,VALID,0.532986,
2005-04-28, 01:36:00,VALID,916.988,VALID,0,VALID,100,VALID,0,VALID,20.1643,VALID,13,VALID,0.652083,
2005-04-28, 01:37:00,VALID,916.989,VALID,0,VALID,100,VALID,0,VALID,20.1474,VALID,13,VALID,0.91282,
2005-04-28, 01:38:00,VALID,916.987,VALID,0,VALID,100,VALID,-0.0169808,VALID,20.1543,VALID,12,VALID,0.802734,
2005-04-28, 01:39:00,VALID,916.983,VALID,0,VALID,100,VALID,-0.0169808,VALID,20.1484,VALID,12,VALID,0.755632,
2005-04-28, 01:40:00,VALID,916.971,VALID,0,VALID,100,VALID,-0.0169808,VALID,20.1514,VALID,8,VALID,0.570126,
2005-04-28, 01:41:00,VALID,916.958,VALID,0,VALID,100,VALID,-0.0169808,VALID,20.1707,VALID,359,VALID,0.701308,
2005-04-28, 01:42:00,VALID,916.946,VALID,0,VALID,100,VALID,0,VALID,20.1963,VALID,359,VALID,0.43316,
2005-04-28, 01:43:00,VALID,916.933,VALID,0,VALID,100,VALID,-0.0169808,VALID,20.206,VALID,359,VALID,0.412287,
2005-04-28, 01:44:00,VALID,916.92,VALID,0,VALID,100,VALID,-0.0679233,VALID,20.2222,VALID,359,VALID,0.25657,
2005-04-28, 01:45:00,VALID,916.913,VALID,0,VALID,100,VALID,-0.0169808,VALID,20.2318,VALID,351,VALID,0.477148,
2005-04-28, 01:46:00,VALID,916.897,VALID,0,VALID,100,VALID,-0.0169808,VALID,20.2448,VALID,346,VALID,0.579901,
2005-04-28, 01:47:00,VALID,916.891,VALID,0,VALID,100,VALID,-0.0169808,VALID,20.2408,VALID,360,VALID,0.933594,
2005-04-28, 01:48:00,VALID,916.862,VALID,0,VALID,100,VALID,-0.0339617,VALID,20.2679,VALID,4,VALID,0.960352,
2005-04-28, 01:49:00,VALID,916.863,VALID,0,VALID,100,VALID,0,VALID,20.2641,VALID,13,VALID,1.11823,
2005-04-28, 01:50:00,VALID,916.863,VALID,0,VALID,100,VALID,0,VALID,20.2768,VALID,16,VALID,0.912194,
2005-04-28, 01:51:00,VALID,916.848,VALID,0,VALID,100,VALID,0,VALID,20.2828,VALID,11,VALID,0.636624,
2005-04-28, 01:52:00,VALID,916.866,VALID,0,VALID,100,VALID,0,VALID,20.289,VALID,11,VALID,0.651677,
2005-04-28, 01:53:00,VALID,916.851,VALID,0,VALID,100,VALID,0.0509425,VALID,20.2949,VALID,9,VALID,0.58505,
2005-04-28, 01:54:00,VALID,916.857,VALID,0,VALID,100,VALID,0.0169808,VALID,20.3247,VALID,343,VALID,0.591146,
2005-04-28, 01:55:00,VALID,916.869,VALID,0,VALID,100,VALID,0.0169808,VALID,20.324,VALID,348,VALID,0.539435,
2005-04-28, 01:56:00,VALID,916.863,VALID,0,VALID,100,VALID,0.0169808,VALID,20.3277,VALID,356,VALID,0.763368,
2005-04-28, 01:57:00,VALID,916.861,VALID,0,VALID,100,VALID,-0.0169808,VALID,20.3377,VALID,15,VALID,1.0322,
2005-04-28, 01:58:00,VALID,916.862,VALID,0,VALID,100,VALID,0.0339617,VALID,20.3374,VALID,9,VALID,0.933061,
2005-04-28, 01:59:00,VALID,916.865,VALID,0,VALID,100,VALID,0.0169808,VALID,20.3213,VALID,17,VALID,1.01154,
2005-04-28, 02:00:00,VALID,916.865,VALID,0,VALID,100,VALID,0.0169808,VALID,20.3183,VALID,6,VALID,0.797991,
2005-04-28, 02:01:00,VALID,916.874,VALID,0,VALID,100,VALID,0,VALID,20.3116,VALID,16,VALID,0.892078,
2005-04-28, 02:02:00,VALID,916.875,VALID,0,VALID,100,VALID,0.0169808,VALID,20.3205,VALID,16,VALID,0.798781,
2005-04-28, 02:03:00,VALID,916.871,VALID,0,VALID,100,VALID,0,VALID,20.3277,VALID,11,VALID,0.639737,
2005-04-28, 02:04:00,VALID,916.872,VALID,0,VALID,100,VALID,0.0169808,VALID,20.3277,VALID,12,VALID,0.699591,
2005-04-28, 02:05:00,VALID,916.866,VALID,0,VALID,100,VALID,-0.0169808,VALID,20.3339,VALID,13,VALID,0.865282,
2005-04-28, 02:06:00,VALID,916.854,VALID,0,VALID,100,VALID,0.0169808,VALID,20.3468,VALID,4,VALID,0.66183,
2005-04-28, 02:07:00,VALID,916.839,VALID,0,VALID,100,VALID,0.0509425,VALID,20.3433,VALID,354,VALID,0.781641,
2005-04-28, 02:08:00,VALID,916.827,VALID,0,VALID,100,VALID,0,VALID,20.363,VALID,28,VALID,0.966493,
2005-04-28, 02:09:00,VALID,916.813,VALID,0,VALID,100,VALID,0,VALID,20.3796,VALID,21,VALID,0.938368,
2005-04-28, 02:10:00,VALID,916.798,VALID,0,VALID,100,VALID,0.0169808,VALID,20.3756,VALID,354,VALID,1.0625,
2005-04-28, 02:11:00,VALID,916.802,VALID,0,VALID,100,VALID,0,VALID,20.3762,VALID,10,VALID,0.917515,
2005-04-28, 02:12:00,VALID,916.799,VALID,0,VALID,100,VALID,0.0169808,VALID,20.3856,VALID,17,VALID,1.03234,
2005-04-28, 02:13:00,VALID,916.808,VALID,0,VALID,100,VALID,0.0169808,VALID,20.3886,VALID,348,VALID,1.2016,
2005-04-28, 02:14:00,VALID,916.802,VALID,0,VALID,100,VALID,0,VALID,20.3958,VALID,343,VALID,1.2674,
2005-04-28, 02:15:00,VALID,916.816,VALID,0,VALID,100,VALID,0,VALID,20.392,VALID,352,VALID,1.23438,
2005-04-28, 02:16:00,VALID,916.807,VALID,0,VALID,100,VALID,0.0169808,VALID,20.395,VALID,346,VALID,1.13767,
2005-04-28, 02:17:00,VALID,916.806,VALID,0,VALID,100,VALID,0.0169808,VALID,20.3988,VALID,7,VALID,0.948742,
2005-04-28, 02:18:00,VALID,916.783,VALID,0,VALID,100,VALID,0,VALID,20.3918,VALID,19,VALID,1.4859,
2005-04-28, 02:19:00,VALID,916.78,VALID,0,VALID,100,VALID,0,VALID,20.3953,VALID,17,VALID,1.40501,
2005-04-28, 02:20:00,VALID,916.776,VALID,0,VALID,100,VALID,-0.0509425,VALID,20.3993,VALID,12,VALID,1.70573,
2005-04-28, 02:21:00,VALID,916.772,VALID,0,VALID,100,VALID,-0.101885,VALID,20.3976,VALID,9,VALID,1.44656,
2005-04-28, 02:22:00,VALID,916.753,VALID,0,VALID,100,VALID,-0.0849042,VALID,20.407,VALID,1,VALID,0.847852,
2005-04-28, 02:23:00,VALID,916.74,VALID,0,VALID,100,VALID,-0.118866,VALID,20.3901,VALID,10,VALID,0.874455,
2005-04-28, 02:24:00,VALID,916.733,VALID,0,VALID,100,VALID,-0.101885,VALID,20.3971,VALID,342,VALID,1.02925,
2005-04-28, 02:25:00,VALID,916.729,VALID,0,VALID,100,VALID,-0.0849042,VALID,20.3871,VALID,338,VALID,0.652734,
2005-04-28, 02:26:00,VALID,916.707,VALID,0,VALID,100,VALID,-0.101885,VALID,20.3973,VALID,327,VALID,0.776758,
2005-04-28, 02:27:00,VALID,916.683,VALID,0,VALID,100,VALID,-0.101885,VALID,20.3938,VALID,11,VALID,0.596227,
2005-04-28, 02:28:00,VALID,916.679,VALID,0,VALID,100,VALID,-0.0849042,VALID,20.403,VALID,26,VALID,0.470486,
2005-04-28, 02:29:00,VALID,916.648,VALID,0,VALID,100,VALID,-0.0849042,VALID,20.4033,VALID,17,VALID,0.428125,
2005-04-28, 02:30:00,VALID,916.625,VALID,0,VALID,100,VALID,-0.0339617,VALID,20.3869,VALID,16,VALID,0.734575,
2005-04-28, 02:31:00,VALID,916.61,VALID,0,VALID,100,VALID,-0.0509425,VALID,20.3807,VALID,16,VALID,0.672828,
2005-04-28, 02:32:00,VALID,916.585,VALID,0,VALID,100,VALID,-0.0679233,VALID,20.3802,VALID,19,VALID,0.720656,
2005-04-28, 02:33:00,VALID,916.569,VALID,0,VALID,100,VALID,-0.0509425,VALID,20.3804,VALID,19,VALID,0.565505,
2005-04-28, 02:34:00,VALID,916.549,VALID,0,VALID,100,VALID,-0.101885,VALID,20.3769,VALID,19,VALID,0.580433,
2005-04-28, 02:35:00,VALID,916.53,VALID,0,VALID,100,VALID,-0.0849042,VALID,20.403,VALID,19,VALID,0.608259,
2005-04-28, 02:36:00,VALID,916.511,VALID,0,VALID,100,VALID,-0.0679233,VALID,20.4132,VALID,17,VALID,0.669779,
2005-04-28, 02:37:00,VALID,916.483,VALID,0,VALID,100,VALID,-0.0339617,VALID,20.4097,VALID,7,VALID,0.526042,
2005-04-28, 02:38:00,VALID,916.461,VALID,0,VALID,100,VALID,-0.0509425,VALID,20.4259,VALID,6,VALID,0.558036,
2005-04-28, 02:39:00,VALID,916.456,VALID,0,VALID,100,VALID,-0.0679233,VALID,20.4227,VALID,10,VALID,0.678597,
2005-04-28, 02:40:00,VALID,916.445,VALID,0,VALID,100,VALID,-0.0679233,VALID,20.4291,VALID,12,VALID,0.922066,
2005-04-28, 02:41:00,VALID,916.432,VALID,0,VALID,100,VALID,-0.0849042,VALID,20.4294,VALID,2,VALID,0.80522,
2005-04-28, 02:42:00,VALID,916.437,VALID,0,VALID,100,VALID,-0.0849042,VALID,20.4261,VALID,5,VALID,0.509301,
2005-04-28, 02:43:00,VALID,916.431,VALID,0,VALID,100,VALID,-0.101885,VALID,20.4388,VALID,5,VALID,0.254492,
2005-04-28, 02:44:00,VALID,916.434,VALID,0,VALID,100,VALID,-0.0849042,VALID,20.4646,VALID,8,VALID,0.528088,
2005-04-28, 02:45:00,VALID,916.451,VALID,0,VALID,100,VALID,-0.0679233,VALID,20.4703,VALID,11,VALID,0.463601,
2005-04-28, 02:46:00,VALID,916.437,VALID,0,VALID,100,VALID,-0.101885,VALID,20.4743,VALID,11,VALID,0.265104,
2005-04-28, 02:47:00,VALID,916.455,VALID,0,VALID,100,VALID,-0.0849042,VALID,20.4708,VALID,11,VALID,0.342797,
2005-04-28, 02:48:00,VALID,916.446,VALID,0,VALID,100,VALID,-0.0849042,VALID,20.4905,VALID,15,VALID,1.11265,
2005-04-28, 02:49:00,VALID,916.439,VALID,0,VALID,100,VALID,-0.0339617,VALID,20.4962,VALID,360,VALID,0.94112,
2005-04-28, 02:50:00,VALID,916.443,VALID,0,VALID,100,VALID,-0.0849042,VALID,20.5128,VALID,22,VALID,0.908381,
2005-04-28, 02:51:00,VALID,916.439,VALID,0,VALID,100,VALID,-0.0339617,VALID,20.519,VALID,340,VALID,0.930778,
2005-04-28, 02:52:00,VALID,916.45,VALID,0,VALID,100,VALID,-0.0679233,VALID,20.5188,VALID,3,VALID,0.770167,
2005-04-28, 02:53:00,VALID,916.446,VALID,0,VALID,100,VALID,-0.0339617,VALID,20.5252,VALID,360,VALID,0.747944,
2005-04-28, 02:54:00,VALID,916.457,VALID,0,VALID,100,VALID,-0.0509425,VALID,20.5255,VALID,319,VALID,0.487351,
2005-04-28, 02:55:00,VALID,916.481,VALID,0,VALID,100,VALID,-0.0509425,VALID,20.5252,VALID,313,VALID,0.245028,
2005-04-28, 02:56:00,VALID,916.51,VALID,0,VALID,100,VALID,-0.101885,VALID,20.526,VALID,313,VALID,0.0491071,
2005-04-28, 02:57:00,VALID,916.549,VALID,0,VALID,100,VALID,-0.101885,VALID,20.5357,VALID,313,VALID,0.040483,
2005-04-28, 02:58:00,VALID,916.574,VALID,0,VALID,100,VALID,-0.0849042,VALID,20.5422,VALID,313,VALID,0,
2005-04-28, 02:59:00,VALID,916.605,VALID,0,VALID,100,VALID,-0.101885,VALID,20.5551,VALID,313,VALID,0.222656,
2005-04-28, 03:00:00,VALID,916.627,VALID,0,VALID,100,VALID,-0.101885,VALID,20.5745,VALID,295,VALID,0.104725,
2005-04-28, 03:01:00,VALID,916.655,VALID,0,VALID,100,VALID,-0.101885,VALID,20.5809,VALID,322,VALID,0.43784,
2005-04-28, 03:02:00,VALID,916.664,VALID,0,VALID,100,VALID,-0.0679233,VALID,20.5871,VALID,348,VALID,0.299107,
2005-04-28, 03:03:00,VALID,916.657,VALID,0,VALID,100,VALID,-0.101885,VALID,20.5946,VALID,348,VALID,0.404576,
2005-04-28, 03:04:00,VALID,916.651,VALID,0,VALID,100,VALID,-0.0849042,VALID,20.5812,VALID,338,VALID,0.567535,
2005-04-28, 03:05:00,VALID,916.639,VALID,0,VALID,100,VALID,-0.0339617,VALID,20.5705,VALID,332,VALID,0.202415,
2005-04-28, 03:06:00,VALID,916.632,VALID,0,VALID,100,VALID,0,VALID,20.5699,VALID,332,VALID,0.148996,
2005-04-28, 03:07:00,VALID,916.618,VALID,0,VALID,100,VALID,0,VALID,20.5665,VALID,332,VALID,0,
2005-04-28, 03:08:00,VALID,916.629,VALID,0,VALID,100,VALID,0,VALID,20.5729,VALID,332,VALID,0,
2005-04-28, 03:09:00,VALID,916.643,VALID,0,VALID,100,VALID,-0.0169808,VALID,20.5829,VALID,332,VALID,0,
2005-04-28, 03:10:00,VALID,916.65,VALID,0,VALID,100,VALID,0,VALID,20.5925,VALID,332,VALID,0,
2005-04-28, 03:11:00,VALID,916.663,VALID,0,VALID,100,VALID,0,VALID,20.5928,VALID,332,VALID,0,
2005-04-28, 03:12:00,VALID,916.686,VALID,0,VALID,100,VALID,0,VALID,20.5891,VALID,332,VALID,0,
2005-04-28, 03:13:00,VALID,916.699,VALID,0,VALID,100,VALID,0,VALID,20.6055,VALID,332,VALID,0,
2005-04-28, 03:14:00,VALID,916.706,VALID,0,VALID,100,VALID,0.0169808,VALID,20.6084,VALID,332,VALID,0,
2005-04-28, 03:15:00,VALID,916.72,VALID,0,VALID,100,VALID,0,VALID,20.6214,VALID,332,VALID,0,
2005-04-28, 03:16:00,VALID,916.726,VALID,0,VALID,100,VALID,0,VALID,20.6345,VALID,332,VALID,0.0172991,
2005-04-28, 03:17:00,VALID,916.733,VALID,0,VALID,100,VALID,-0.0169808,VALID,20.6674,VALID,332,VALID,0.0173611,
2005-04-28, 03:18:00,VALID,916.74,VALID,0,VALID,100,VALID,0,VALID,20.6599,VALID,332,VALID,0,
2005-04-28, 03:19:00,VALID,916.748,VALID,0,VALID,100,VALID,0.0169808,VALID,20.6631,VALID,332,VALID,0,
2005-04-28, 03:20:00,VALID,916.752,VALID,0,VALID,100,VALID,0,VALID,20.6757,VALID,332,VALID,0,
2005-04-28, 03:21:00,VALID,916.745,VALID,0,VALID,100,VALID,0,VALID,20.7059,VALID,332,VALID,0,
2005-04-28, 03:22:00,VALID,916.745,VALID,0,VALID,100,VALID,0.0169808,VALID,20.7021,VALID,332,VALID,0,
2005-04-28, 03:23:00,VALID,916.722,VALID,0,VALID,100,VALID,0.0339617,VALID,20.7053,VALID,332,VALID,0,
2005-04-28, 03:24:00,VALID,916.724,VALID,0,VALID,100,VALID,0.0169808,VALID,20.708,VALID,338,VALID,0.308084,
2005-04-28, 03:25:00,VALID,916.731,VALID,0,VALID,100,VALID,0.0339617,VALID,20.679,VALID,357,VALID,0.368608,
2005-04-28, 03:26:00,VALID,916.717,VALID,0,VALID,100,VALID,0.0169808,VALID,20.6822,VALID,357,VALID,0.433416,
2005-04-28, 03:27:00,VALID,916.715,VALID,0,VALID,100,VALID,0.0169808,VALID,20.6956,VALID,357,VALID,0.484747,
2005-04-28, 03:28:00,VALID,916.711,VALID,0,VALID,100,VALID,0,VALID,20.7148,VALID,357,VALID,0.202431,
2005-04-28, 03:29:00,VALID,916.694,VALID,0,VALID,100,VALID,0,VALID,20.7183,VALID,357,VALID,0,
2005-04-28, 03:30:00,VALID,916.693,VALID,0,VALID,100,VALID,0,VALID,20.7347,VALID,357,VALID,0.0962891,
2005-04-28, 03:31:00,VALID,916.674,VALID,0,VALID,100,VALID,0.0339617,VALID,20.7075,VALID,13,VALID,0.567951,
2005-04-28, 03:32:00,VALID,916.684,VALID,0,VALID,100,VALID,0.0169808,VALID,20.7018,VALID,26,VALID,0.330487,
2005-04-28, 03:33:00,VALID,916.677,VALID,0,VALID,100,VALID,0.0339617,VALID,20.6922,VALID,26,VALID,0.106771,
2005-04-28, 03:34:00,VALID,916.672,VALID,0,VALID,100,VALID,0.0169808,VALID,20.6887,VALID,26,VALID,0.346094,
2005-04-28, 03:35:00,VALID,916.683,VALID,0,VALID,100,VALID,0.0509425,VALID,20.6685,VALID,26,VALID,0.295785,
2005-04-28, 03:36:00,VALID,916.705,VALID,0,VALID,100,VALID,0,VALID,20.6795,VALID,26,VALID,0.15253,
2005-04-28, 03:37:00,VALID,916.746,VALID,0,VALID,100,VALID,0.0509425,VALID,20.6785,VALID,26,VALID,0.0994318,
2005-04-28, 03:38:00,VALID,916.778,VALID,0,VALID,100,VALID,0.0169808,VALID,20.6819,VALID,26,VALID,0,
2005-04-28, 03:39:00,VALID,916.831,VALID,0,VALID,100,VALID,0.0339617,VALID,20.7021,VALID,26,VALID,0,